AirNav   Everest Fuels
 
 644 users online  

M34 Kentucky Dam State Park Airport
Calvert City, Kentucky, USA

GOING TO CALVERT CITY?


FAA INFORMATION EFFECTIVE 10 SEPTEMBER 2020

Location

FAA Identifier: M34
Lat/Long: 37-00-35.2460N 088-17-57.8502W
37-00.587433N 088-17.964170W
37.0097906,-88.2994028
(estimated)
Elevation: 350.8 ft. / 106.9 m (surveyed)
Variation: 03W (2020)
From city: 3 miles SE of CALVERT CITY, KY
Time zone: UTC -5 (UTC -6 during Standard Time)
Zip code: 42044

Airport Operations

Airport use: Open to the public
Activation date: 10/1948
Control tower: no
ARTCC: MEMPHIS CENTER
FSS: LOUISVILLE FLIGHT SERVICE STATION
NOTAMs facility: LOU (NOTAM-D service available)
Attendance: UNATNDD
Wind indicator: lighted
Segmented circle: yes
Lights: ACTVT REIL RWY 10 & 28; PAPI RWY 10 & 28; MIRL RWY 10/28 - CTAF.
Beacon: white-green (lighted land airport)
Operates sunset to sunrise.

Airport Communications

CTAF/UNICOM: 123.0
WX AWOS-3 at M25 (20 nm SW): 120.625 (270-247-2094)

Nearby radio navigation aids

VOR radial/distance  VOR name  Freq  Var
CNGr087/25.8CUNNINGHAM VOR/DME113.1003E

Airport Services

Parking: tiedowns
Airframe service: NONE
Powerplant service: NONE
Bottled oxygen: NONE
Bulk oxygen: NONE

Runway Information

Runway 10/28

Dimensions: 4005 x 100 ft. / 1221 x 30 m
Surface: asphalt, in fair condition
Weight bearing capacity: 
Single wheel: 12.5
Runway edge lights: medium intensity
RUNWAY 10  RUNWAY 28
Latitude: 37-00.640533N37-00.534333N
Longitude: 088-18.370300W088-17.558040W
Elevation: 348.6 ft.350.7 ft.
Traffic pattern: leftleft
Markings: nonprecision, in good conditionnonprecision, in good condition
Visual slope indicator: 2-light PAPI on left (4.00 degrees glide path)2-light PAPI on left (4.00 degrees glide path)
Runway end identifier lights: yesyes
Touchdown point: yes, no lightsyes, no lights
Obstructions: none21 ft. trees, 282 ft. from runway, 129 ft. right of centerline, 3:1 slope to clear

Airport Ownership and Management from official FAA records

Ownership: Publicly-owned
Owner: KENTUCKY DEPT. OF PARKS
2 HUDSON HOLLOW UNIT 1
FRANKFORT, KY 40601
Phone (502) 892-3367
Manager: JOHN WARD
P.O. BOX 36
CALVERT CITY, KY 42029
Phone (270) 395-7138

Airport Operational Statistics

Aircraft based on the field: 11
Single engine airplanes: 11
    
Aircraft operations: avg 44/day *
69% transient general aviation
19% military
9% local general aviation
3% air taxi
* for 12-month period ending 18 October 2019

Additional Remarks

DEER AND LARGE FLOCKS OF GEESE ON AND INVOF ARPT.
TRANSPORTATION TO PARK LODGE AVAIL 270-362-4271.
FOR CD CTC MEMPHIS ARTCC AT 901-368-8453.

Instrument Procedures

There are no published instrument procedures at M34.

Some nearby airports with instrument procedures:

M25 - Mayfield Graves County Airport (20 nm SW)
KCEY - Kyle-Oakley Field Airport (21 nm S)
5M9 - Marion-Crittenden County Airport (22 nm NE)
2M0 - Princeton-Caldwell County Airport (22 nm E)
KPAH - Barkley Regional Airport (23 nm W)
 
Loc | Ops | Rwys | IFR | FBO | Links
Com | Nav | Svcs | Stats | Notes
Area around M34 (Kentucky Dam State Park Airport)
 
Road maps at: MapQuest Bing Google
 
Aerial photo
WARNING: Photo may not be current or correct
Aerial photo of M34 (Kentucky Dam State Park Airport)
Photo by Brandon Tanner
Photo taken 02-Apr-2015
looking east.

Do you have a better or more recent aerial photo of Kentucky Dam State Park Airport that you would like to share? If so, please send us your photo.

 
Sectional chart

 
Airport distance calculator
Flying to Kentucky Dam State Park Airport? Find the distance to fly.

From to M34

Sunrise and sunset
Times for 27-Sep-2020
 Local
(UTC-5)
 Zulu
(UTC)
Morning civil twilight06:2111:21
Sunrise06:4711:47
Sunset18:4123:41
Evening civil twilight19:0700:07

Current date and time
Zulu (UTC)  27-Sep-2020 11:51:49
Local (UTC-5)  27-Sep-2020 06:51:49
 
METAR
KM25 
20nm SW 
271135Z AUTO 18005KT 10SM CLR 16/16 A2993 RMK AO2
KCEY 
21nm S 
271135Z AUTO 18004KT 10SM CLR 17/16 A2992 RMK AO1
K5M9 
22nm NE 
271135Z AUTO 20004KT 7SM OVC003 16/16 A2991 RMK AO2 T01580155
KPAH 
23nm W 
271053Z 21005KT 8SM OVC004 18/17 A2989 RMK AO2 SLP119 T01780167
TAF
KPAH 
23nm W 
270520Z 2706/2806 20005KT P6SM FEW030 FM271500 21009KT P6SM SCT035
NOTAMs
Click for the latest NOTAMs
NOTAMs are issued by the DoD/FAA and will open in a separate window not controlled by AirNav.

 

 
 

FBO, Fuel Providers, and Aircraft Ground Support

  
 Business Name 
 
 Contact 
 
 Services / Description 
 
Fuel Prices
 
Comments
  
Kentucky Dam State Park Airport 270-395-7138
[web site]
[email]

Like us on facebook See us on instagram Follow us on twitter
Airport management, Aircraft parking (ramp or tiedown), Hangars, Hangar leasing / sales, Passenger terminal and lounge, Catering, Courtesy transportation, ...

More info about Kentucky Dam State Park Airport
no fuel
 
   1 read write
Update Fuel Prices
 

Would you like to see your business listed on this page?

 If your business provides an interesting product or service to pilots, flight crews, aircraft, or users of the Kentucky Dam State Park Airport, you should consider listing it here.  To start the listing process, click on the button below
 
Add a business
 

Other Pages about Kentucky Dam State Park Airport

Update a link
 
Copyright © AirNav, LLC. All rights reserved. Privacy Policy  Contact